Regional Weather Roundup
Issued by NWS Grand Forks, ND

Home | Current Version | Previous Version | Graphics & Text | Print | Product List | Glossary On
Versions: 1 2 3 4 5 6 7 8 9 10 11 12 13 14 15 16 17 18 19 20 21 22 23 24 25 26 27 28 29 30 31 32 33 34 35 36 37 38 39 40 41 42 43 44 45 46 47 48 49 50
000
ASUS43 KFGF 272210
RWRFGF
PRAIRIE TO PINES  WEATHER ROUNDUP
NATIONAL WEATHER SERVICE EASTERN NORTH DAKOTA/GRAND FORKS ND
400 PM CST TUE JAN 27 2015

 **SATELLITE DATA USED TO AUGMENT SKY COVER AT AUTOMATED STATIONS**
 *****  WEATHER ACROSS EASTERN NORTH DAKOTA  *****

CITY           SKY/WX    TMP DP  RH WIND       PRES   REMARKS
GRAND FORKS    CLOUDY    32  30  92 S14       29.94F WCI  22
GRAND FRKS AFB CLOUDY    32  29  89 S20       29.94F WCI  20
DEVILS LAKE    MOSUNNY   37  34  87 S15       29.84F
FARGO          CLOUDY    32  29  88 SE18      29.97F WCI  20
WAHPETON ARPT  CLOUDY    32  30  93 S21       30.00F WCI  20
$$

 ***** WEATHER ACROSS CENTRAL AND WESTERN NORTH DAKOTA  *****

CITY           SKY/WX    TMP DP  RH WIND       PRES   REMARKS
BISMARCK       MOSUNNY   51  32  48 S5        29.83S
MINOT          PTSUNNY   47  37  68 W5        29.78R
JAMESTOWN      MOSUNNY   38  34  85 SE13      29.86F
MINOT AFB      PTSUNNY   42  42  99 SE2       29.78R
GARRISON         N/A     48  39  71 SW5       29.79S
WILLISTON      CLOUDY    50  37  61 CALM      29.79S
DICKINSON      MOSUNNY   55  36  48 SW6       29.80S
HETTINGER      MOSUNNY   63  34  33 W7        29.84F
$$

 *****  OTHER AIRPORT OBSERVATIONS IN OUR AREA  *****

CITY           SKY/WX    TMP DP  RH WIND       PRES   REMARKS
WALHALLA         N/A     32  32 100 SE13      29.90S WCI  22
GRAFTON AIRPOR NOT AVBL
VALLEY CITY AR CLOUDY    32  32 100 SE15      29.90F FOG     WCI  22
CANDO          FAIR      37  32  81 S13       29.84S
CAVALIER APRT  CLOUDY    32  30  93 S10G17    29.92S WCI  24
GWINNER        CLOUDY    34  34 100 SE23      29.94F WCI  22
ROLLA          FAIR      36  34  93 S12       29.81F
 ***** THE ABOVE OBSERVATIONS ARE NON NWS ARE NOT QUALITY
       CONTROLLED AND MAY MIS-REPORT RAIN FOR SNOW...
$$

  *****  WEATHER ACROSS NORTHERN MINNESOTA  *****

CITY           SKY/WX    TMP DP  RH WIND       PRES   REMARKS
FLAG ISLAND    CLOUDY    28  27  93 S10       30.01R WCI  19
WARROAD        CLOUDY    30  27  86 SE6       30.01S WCI  24
ROSEAU         CLOUDY    30  27  86 SE5       29.99S
HALLOCK        CLOUDY    30  30 100 S12       29.96S WCI  21
THF RVR FALLS  MOCLDY    34  30  86 S8        29.98S
BAUDETTE       CLOUDY    32  25  75 SE7       30.01S
WASKISH        CLOUDY    34  27  75 SE9       30.02F
CROOKSTON      CLOUDY    34  30  86 S13G20    29.98F WCI  25
STEPHEN NDAWN    N/A     30  30 100 S14         N/A  WCI  20
GREENBUSH NDAW   N/A     32  28  86 S10         N/A  WCI  24
$$
  *****  WEATHER ACROSS CENTRAL AND WEST MINNESOTA  *****

CITY           SKY/WX    TMP DP  RH WIND       PRES   REMARKS
FOSSTON        PTCLDY    36  28  75 SE9       29.98S
BEMIDJI        CLOUDY    33  27  80 S8        30.00F
PARK RAPIDS    PTCLDY    35  27  72 SE14      30.02S
ELBOW LAKE     CLOUDY    31  30  96 SE20      30.02F WCI  18
WADENA         CLOUDY    30  27  86 S14       30.04S WCI  20
DETROIT LAKES  MOSUNNY   32  30  93 S15       30.00S WCI  22
MOORHEAD       CLOUDY    34  34 100 S16       30.00S WCI  23
FERGUS FALLS   CLOUDY    30  30 100 SE15G22   30.04F WCI  19
MORRIS MN      CLOUDY    30  30 100 SE20      30.02F WCI  18
STAPLES        CLOUDY    30  27  86 S9        30.05F WCI  22
$$
  *****  WEATHER ELSEWHERE ACROSS MINNESOTA  *****

CITY           SKY/WX    TMP DP  RH WIND       PRES   REMARKS
DULUTH         CLOUDY    28  22  78 S9        30.10S WCI  19
INTRNTL FALLS  CLOUDY    31  24  75 SE6       30.06R
ELY            CLOUDY    27  23  86 S3        30.09S
CLOQUET        CLOUDY    28  21  74 SE6       30.11F WCI  22
WHEATON        CLOUDY    28  28 100 SE18      30.03F WCI  16
BRAINERD       CLOUDY    32  26  78 S10       30.08S WCI  24
HIBBING        CLOUDY    30  23  75 SE8       30.08F WCI  22
ALEXANDRIA     CLOUDY    31  28  89 SE16      30.05F WCI  20
SAINT CLOUD    CLOUDY    34  27  75 SE13      30.09F WCI  25
MINNEAPOLIS    CLOUDY    33  25  72 SE7       30.15F
$$

  *****  WEATHER ACROSS SOUTH DAKOTA  *****

CITY           SKY/WX    TMP DP  RH WIND       PRES   REMARKS
SIOUX FALLS    PTSUNNY   41  34  76 SE14      30.00F
BROOKINGS      NOT AVBL
WATERTOWN      MOSUNNY   36  31  82 SE14G21   29.95F
HURON          SUNNY     41  36  82 SE16      29.92F
SISSETON         N/A     31  31 100 S17       29.98F WCI  19
ABERDEEN       MOSUNNY   44  37  76 S14       29.91F
MITCHELL       SUNNY     45  39  79 SE16      29.95S
PIERRE         MOSUNNY   58  36  43 SE5       29.85F
MOBRIDGE       SUNNY     51  37  58 SE10      29.82S
RAPID CITY     SUNNY     70  28  21 SE10      29.87F
$$

  *****  SOME WEATHER IN NEARBY STATES *****

CITY           SKY/WX    TMP DP  RH WIND       PRES   REMARKS
GLASGOW MT     MOSUNNY   49  38  65 S6        29.80S
GREAT FALLS MT MOSUNNY   62  25  24 SW15      29.85F
CHEYENNE WY    SUNNY     65  19  17 W14       30.07F
SCOTTSBLUFF NE   N/A    N/A N/A N/A MISG      29.97F
OMAHA NE       MOSUNNY   53  32  44 SE14      30.04F
DES MOINES IA  MOSUNNY   46  30  53 SE8       30.13S
DAVENPORT IA   CLOUDY    27  21  78 E7        30.23R WCI  19
CHICAGO IL     PTCLDY    30  16  56 NE9       30.20R WCI  22
EAU CLAIRE WI  CLOUDY    29  20  69 SE7       30.18S WCI  22
LA CROSSE WI   CLOUDY    31  21  66 E5        30.21R
$$

  *****  SOME NATIONAL WEATHER *****

CITY           SKY/WX    TMP DP  RH WIND       PRES   REMARKS
LA GUARDIA NY  CLOUDY    25  16  68 N15       29.67R WCI  13
RALEIGH NC     PTCLDY    43   9  24 VRB5      29.83R
ATLANTA GA     MOSUNNY   47  29  49 NW14G20   29.99R
NEW ORLEANS LA SUNNY     73  38  27 NW12      30.08R
OKLAHOMA CITY  MOSUNNY   78  34  20 SW10      30.08F
ALBUQUERQUE NM MOSUNNY   58  25  28 CALM      30.26F
SALT LAKE CITY PTSUNNY   57  35  43 S17G24    30.15R
LOS ANGELES CA MOSUNNY   65  57  75 W13       30.16S
BOISE ID       CLOUDY    37  34  89 CALM      30.10S
SEATTLE WA     CLOUDY    51  49  92 S7        30.10S FOG
$$

*** WEATHER ACROSS MANITOBA...SASKATCHEWAN AND ONTARIO ***
                ***ONTARIO***

CITY           SKY/WX    TMP DP  RH WIND       PRES   REMARKS
GERALDTON      FLURRIES  25  19  80 SW9G18    30.12R WCI  15
THUNDER BAY    CLOUDY    28  23  80 S6        30.15S WCI  22
SIOUX LOOKOUT  CLOUDY    23  21  93 S8        30.03S WCI  14
TORONTO        MOCLDY    19   0  42 N16       30.11R WCI   5
BIG TROUT LK   FLURRIES  25  23  93 SW10      29.89R WCI  15
PICKLE LAKE    CLOUDY    21  19  93 SW8       29.99R WCI  12
DRYDEN         CLOUDY    23  21  93 S9        30.03S WCI  13
KENORA         CLOUDY    25  23  93 S10       30.00S WCI  15
$$
                *** MANITOBA***

CITY           SKY/WX    TMP DP  RH WIND       PRES   REMARKS
BRANDON        CLOUDY    36  30  80 E5        29.84R
DAUPHIN        CLOUDY    32  30  93 NE6       29.88R
ISLAND LAKE    FLURRIES  23  23 100 NW7       29.93R WCI  15
PILOT MOUND      N/A     34  34 100 S13         N/A  WCI  25
THE PAS        MOCLDY    18  14  86 N13       30.00R WCI   4
THOMPSON       PTCLDY    10   1  67 NW10      30.03R WCI  -3
WINNIPEG       CLOUDY    30  27  86 S21       29.94S WCI  17
LYNN LAKE      CLEAR     -2  -9  71 NW13      30.07R WCI -21
CHURCHILL      PTCLDY    -8 -13  77 NW26G32   29.97R WCI -35
GILLAM         PTCLDY     7   0  72 NW12      30.00R WCI  -9
$$
                ***SASKATCHEWAN***

CITY           SKY/WX    TMP DP  RH WIND       PRES   REMARKS
ESTEVAN        CLOUDY    43  37  81 W6        29.77S
KINDERSLEY     PTSUNNY   34  30  86 VRB2      29.78R
LLOYDMINSTER   PTSUNNY   36  30  80 E13       29.81S
PRINCE ALBERT  CLOUDY    28  25  86 E15       29.91R WCI  17
REGINA         PTSUNNY   32  28  86 SE3       29.80S
YORKTON        SUNNY     32  28  86 N6        29.83R
N. BATTLEFORD  PTSUNNY   36  32  87 E7        29.85S
LA RONGE       MOCLDY    10   3  72 N8        30.05R WCI  -1
SASKATOON      CLOUDY    36  32  87 NE9       29.85S
SWIFT CURRENT  MOSUNNY   41  36  81 E5        29.75S
$$
NOTE: THESE ARE AUTOMATED STATIONS WITH LIMITED QUALITY CONTROL
      "FAIR" INDICATES FEW OR NO CLOUDS BELOW 12,000 FEET WITH NO
      SIGNIFICANT WEATHER AND/OR OBSTRUCTIONS TO VISIBILITY.
      SKY/WX - SKY CONDITION AND SIGNIFICANT WEATHER.
      TMP - AIR TEMPERATURE.    DP   - DEWPOINT TEMPERATURE.
      RH  - RELATIVE HUMIDITY.  PRES - PRESSURE.
      HX  - HEAT INDEX.         WCI  - WIND CHILL INDEX.
$


USA.gov is the U.S. government's official web portal to all federal, state and local government web resources and services.